Location: *
(34.8620°S, 39.3380°E)
Time: 10:01:56
(UTC+00:00)

Cosmos 468 Rocket - Pass Details

Date: 27 July 2021
Orbit: 745 x 779 km, 74.0° (Epoch: 23 September)

Event Time Altitude Azimuth Distance (km) Brightness Sun altitude
Rises 03:02:47 0° 336° (NNW) 3,199 7.1 -16.1°
Reaches altitude 10° 03:05:09 10° 333° (NNW) 2,277 6.3 -15.6°
Maximum altitude 03:10:17 64° 251° (WSW) 837 3.9 -14.6°
Drops below altitude 10° 03:15:26 10° 169° (S) 2,291 6.4 -13.6°
Sets 03:17:50 0° 166° (SSE) 3,221 7.2 -13.1°
